Location: *
(45.5667°S, 177.5167°W)
Time: 21:58:15
(UTC+00:00)

Cosmos 1782 - Pass Details

Date: 29 May 2022
Orbit: 533 x 548 km, 82.5° (Epoch: 24 June)

Event Time Altitude Azimuth Distance (km) Brightness Sun altitude
Rises 04:54:46 0° 181° (S) 2,732 6.1 -6.6°
Reaches altitude 10° 04:57:07 10° 171° (S) 1,829 5.2 -7.0°
Maximum altitude 05:00:47 33° 105° (ESE) 933 3.5 -7.5°
Drops below altitude 10° 05:04:23 10° 40° (NE) 1,802 5.3 -8.1°
Sets 05:06:40 0° 30° (NNE) 2,684 6.3 -8.5°
